Location: Carri�res
(48.9069°N, 2.1792°E)
Time: 21:06:34
(UTC+00:00)

Cosmos 2058 Rocket - Pass Details

Date: 17 January 2021
Orbit: 611 x 639 km, 82.5° (Epoch: 02 March)

Event Time Altitude Azimuth Distance (km) Brightness Sun altitude
Rises 18:01:14 0° 353° (N) 2,937 6.5 -15.3°
Reaches altitude 10° 18:03:31 10° 359° (N) 2,028 5.6 -15.7°
Maximum altitude 18:07:56 53° 76° (ENE) 785 3.2 -16.4°
Drops below altitude 10° 18:12:20 10° 154° (SSE) 2,023 5.6 -17.1°
Sets 18:14:37 0° 159° (SSE) 2,929 6.4 -17.5°
